Regional Weather Roundup
Issued by NWS

Home | Current Version | Previous Version | Text Only | Print | Product List | Glossary Off
Versions: 1 2 3 4 5 6 7 8 9 10 11 12 13 14 15 16 17 18 19 20 21 22 23 24 25 26 27 28 29 30 31 32 33 34 35 36 37 38 39 40 41 42 43 44 45 46 47 48 49 50

000
ASUS44 KMEG 262300
RWRTN
TENNESSEE HOURLY STATE WEATHER ROUNDUP
NATIONAL WEATHER SERVICE MEMPHIS TN
600 PM CDT TUE JUL 26 2016

TNZ002-004-019-021-049-052-054-088>092-270000-
WEST TENNESSEE

CITY           SKY/WX    TMP DP  RH WIND       PRES   REMARKS
MEMPHIS INTL   MOSUNNY   93  71  48 S8        29.93R HX 100
NWS MEMPHIS      N/A     93 N/A N/A MISG        N/A
JACKSON        MOSUNNY   83  79  88 NW9       29.94S HX  94
DYERSBURG      PTSUNNY   86  72  62 MISG      29.94S HX  92
PARIS          SUNNY     90  75  62 N5        29.95F HX 100
LEXINGTON      MOSUNNY   90  72  55 VRB3      29.93S HX  96
$$

TNZ008-025-027-028-033-062-065-066-270000-
NORTH MIDDLE TENNESSEE

CITY           SKY/WX    TMP DP  RH WIND       PRES   REMARKS
NASHVILLE      MOSUNNY   92  70  48 CALM      29.96S HX  97
CLARKSVILLE    MOSUNNY   91  72  53 N9        29.94F HX  98
COOKEVILLE     SUNNY     93  75  55 NW3       29.98S HX 104
CROSSVILLE     SUNNY     87  69  54 CALM      30.05S HX  91
$$

TNZ061-075-076-078-094-096-097-270000-
SOUTH MIDDLE TENNESSEE

CITY           SKY/WX    TMP DP  RH WIND       PRES   REMARKS
TULLAHOMA      SUNNY     93  70  46 SW7       29.99R HX  99
WINCHESTER     SUNNY     91  72  52 SE3       29.98S HX  98
MCMINNVILLE    SUNNY     97  72  44 CALM      29.98S HX 105
COLUMBIA       PTSUNNY   84  84 100 W7        29.95R HX 104
SHELBYVILLE    SUNNY     95  73  49 CALM      29.97S HX 105
$$

TNZ017-018-042-046-047-270000-
NORTHEAST TENNESSEE

CITY           SKY/WX    TMP DP  RH WIND       PRES   REMARKS
TRI CITIES     PTSUNNY   88  73  61 CALM      30.00S THUNDER HX  95
$$

TNZ012-013-036-069-073-074-270000-
CENTRAL EAST TENNESSEE

CITY           SKY/WX    TMP DP  RH WIND       PRES   REMARKS
KNOXVILLE      MOSUNNY   91  70  49 E12       29.96F HX  96
OAK RIDGE      SUNNY     95  67  39 VRB6      29.98F HX  99
GATLINBURG     MOSUNNY   84  70  61 CALM      29.99R
$$

TNZ083-085-099-270000-
SOUTHEAST TENNESSEE

CITY           SKY/WX    TMP DP  RH WIND       PRES   REMARKS
CHATTANOOGA    MOSUNNY   94  70  45 NW8       29.95S HX 100
$$

SKY/WX REPORTED AS FAIR MEANS FEW OR NO CLOUDS BELOW
12 THOUSAND FEET.





USA.gov is the U.S. government's official web portal to all federal, state and local government web resources and services.